Montello, Wisconsin, United States (53949)
Lat: 43.79N, Lon: 89.32W
Wx Zone: WIZ046
Local Info
Past Weather Observations for Friday, June 26, 2015

NOTE: This archive is for the closest National Weather Service station to Montello. Information may differ from the station used for current weather conditions.

Click here for Long-term Archive

Time Weather Temperature Dewpoint Humidity Pressure Winds Precip Visibility
23:55
Mostly Cloudy
Fog And Mist
59°F / 15°C 57°F / 14°C 94% 30.06 in
(1018 mb)
Calm - 3/4SM
23:35
Overcast
Fog
61°F / 16°C 59°F / 15°C 94% 30.06 in
(1018 mb)
Calm - 1/2SM
23:15
Mostly Cloudy
Fog
61°F / 16°C 59°F / 15°C 94% 30.06 in
(1018 mb)
Calm - 1/4SM
22:55
Partly Cloudy
Fog And Mist
61°F / 16°C 59°F / 15°C 94% 30.06 in
(1018 mb)
Calm - 2SM
22:35
Obscured
Fog And Mist
61°F / 16°C 59°F / 15°C 94% 30.06 in
(1018 mb)
Calm - 1 1/4SM
22:15
Clear
Fog And Mist
61°F / 16°C 59°F / 15°C 94% 30.06 in
(1018 mb)
Calm - 3SM
21:55
Clear
Fog And Mist
63°F / 17°C 59°F / 15°C 88% 30.06 in
(1018 mb)
Calm - 5SM
21:35
Clear
Fog And Mist
63°F / 17°C 61°F / 16°C 94% 30.06 in
(1018 mb)
Calm - 5SM
21:15
Clear
63°F / 17°C 61°F / 16°C 94% 30.06 in
(1018 mb)
Calm - 10SM
20:55
Clear
63°F / 17°C 61°F / 16°C 94% 30.06 in
(1018 mb)
ENE 3.5 mph
(ENE 6 kph)
- 10SM
20:35
Clear
64°F / 18°C 61°F / 16°C 88% 30.06 in
(1018 mb)
NE 3.5 mph
(NE 6 kph)
- 10SM
20:15
Clear
64°F / 18°C 61°F / 16°C 88% 30.06 in
(1018 mb)
NE 3.5 mph
(NE 6 kph)
- 10SM
19:55
Clear
66°F / 19°C 61°F / 16°C 83% 30.06 in
(1018 mb)
NE 4.6 mph
(NE 7 kph)
- 10SM
19:35
Clear
66°F / 19°C 63°F / 17°C 88% 30.06 in
(1018 mb)
NE 3.5 mph
(NE 6 kph)
- 10SM
19:15
Partly Cloudy
68°F / 20°C 63°F / 17°C 83% 30.06 in
(1018 mb)
NNW 3.5 mph
(NNW 6 kph)
- 10SM
18:55
Mostly Cloudy
68°F / 20°C 63°F / 17°C 83% 30.06 in
(1018 mb)
NW 3.5 mph
(NW 6 kph)
- 10SM
18:35
Clear
Thunder Storms
68°F / 20°C 61°F / 16°C 78% 30.04 in
(1017 mb)
Calm - 10SM
18:15
Partly Cloudy
68°F / 20°C 61°F / 16°C 78% 30.04 in
(1017 mb)
Calm - 10SM
17:55
Partly Cloudy
Thunder Storms
70°F / 21°C 61°F / 16°C 73% 30.04 in
(1017 mb)
Calm - 10SM
17:35
Overcast
70°F / 21°C 61°F / 16°C 73% 30.04 in
(1017 mb)
SE 3.5 mph
(SE 6 kph)
- 10SM
17:15
Overcast
70°F / 21°C 59°F / 15°C 69% 30.04 in
(1017 mb)
Calm - 10SM
16:55
Overcast
70°F / 21°C 59°F / 15°C 69% 30.04 in
(1017 mb)
ESE 3.5 mph
(ESE 6 kph)
- 10SM
16:35
Mostly Cloudy
72°F / 22°C 59°F / 15°C 65% 30.04 in
(1017 mb)
SE 4.6 mph
(SE 7 kph)
- 10SM
16:15
Mostly Cloudy
70°F / 21°C 59°F / 15°C 69% 30.04 in
(1017 mb)
E 6.9 mph
(E 11 kph)
- 10SM
15:55
Mostly Cloudy
73°F / 23°C 61°F / 16°C 65% 30.04 in
(1017 mb)
ESE 9.2 mph
(ESE 15 kph)
- 10SM
15:35
Mostly Cloudy
73°F / 23°C 61°F / 16°C 65% 30.04 in
(1017 mb)
E 8.1 mph
(E 13 kph)
- 10SM
15:15
Mostly Cloudy
73°F / 23°C 61°F / 16°C 65% 30.04 in
(1017 mb)
E 6.9 mph
(E 11 kph)
- 10SM
14:55
Partly Cloudy
Thunder Storms
75°F / 24°C 63°F / 17°C 65% 30.04 in
(1017 mb)
E 6.9 mph
(E 11 kph)
- 10SM
14:35
Partly Cloudy
73°F / 23°C 61°F / 16°C 65% 30.06 in
(1018 mb)
E 8.1 mph
(E 13 kph)
- 10SM
14:15
Partly Cloudy
73°F / 23°C 63°F / 17°C 69% 30.06 in
(1018 mb)
ENE 5.8 mph
(ENE 9 kph)
- 10SM
13:55
Mostly Cloudy
72°F / 22°C 61°F / 16°C 69% 30.06 in
(1018 mb)
ENE 6.9 mph
(ENE 11 kph)
- 10SM
13:35
Mostly Cloudy
70°F / 21°C 63°F / 17°C 78% 30.06 in
(1018 mb)
NE 4.6 mph
(NE 7 kph)
- 10SM
13:15
Overcast
70°F / 21°C 61°F / 16°C 73% 30.06 in
(1018 mb)
NE 8.1 mph
(NE 13 kph)
- 10SM
12:55
Mostly Cloudy
72°F / 22°C 63°F / 17°C 73% 30.06 in
(1018 mb)
NE 6.9 mph
(NE 11 kph)
- 10SM
12:35
Overcast
70°F / 21°C 61°F / 16°C 73% 30.06 in
(1018 mb)
NE 6.9 mph
(NE 11 kph)
- 10SM
12:15
Mostly Cloudy
70°F / 21°C 61°F / 16°C 73% 30.06 in
(1018 mb)
NE 8.1 mph
(NE 13 kph)
- 10SM
11:55
Mostly Cloudy
70°F / 21°C 63°F / 17°C 78% 30.06 in
(1018 mb)
ENE 6.9 mph
(ENE 11 kph)
- 10SM
11:35
Mostly Cloudy
70°F / 21°C 63°F / 17°C 78% 30.06 in
(1018 mb)
NE 6.9 mph
(NE 11 kph)
- 10SM
11:15
Mostly Cloudy
70°F / 21°C 63°F / 17°C 78% 30.06 in
(1018 mb)
NE 8.1 mph
(NE 13 kph)
- 10SM
10:55
Mostly Cloudy
68°F / 20°C 63°F / 17°C 83% 30.06 in
(1018 mb)
NE 6.9 mph
(NE 11 kph)
- 10SM
10:35
Overcast
68°F / 20°C 63°F / 17°C 83% 30.06 in
(1018 mb)
NE 5.8 mph
(NE 9 kph)
- 7SM
10:15
Overcast
66°F / 19°C 63°F / 17°C 88% 30.06 in
(1018 mb)
ENE 8.1 mph
(ENE 13 kph)
- 7SM
09:55
Overcast
Fog And Mist
66°F / 19°C 61°F / 16°C 83% 30.06 in
(1018 mb)
ENE 6.9 mph
(ENE 11 kph)
- 5SM
09:35
Overcast
Fog And Mist
64°F / 18°C 61°F / 16°C 88% 30.06 in
(1018 mb)
NE 6.9 mph
(NE 11 kph)
- 5SM
09:10
Overcast
64°F / 18°C 61°F / 16°C 88% 30.06 in
(1018 mb)
ENE 6.9 mph
(ENE 11 kph)
- 7SM
08:55
Overcast
Fog And Mist
64°F / 18°C 61°F / 16°C 88% 30.06 in
(1018 mb)
ENE 6.9 mph
(ENE 11 kph)
- 5SM
08:35
Overcast
Fog And Mist
64°F / 18°C 61°F / 16°C 88% 30.06 in
(1018 mb)
ENE 8.1 mph
(ENE 13 kph)
- 5SM
08:15
Overcast
63°F / 17°C 61°F / 16°C 94% 30.06 in
(1018 mb)
ENE 8.1 mph
(ENE 13 kph)
- 7SM
07:55
Overcast
63°F / 17°C 61°F / 16°C 94% 30.06 in
(1018 mb)
NE 8.1 mph
(NE 13 kph)
- 7SM
07:35
Mostly Cloudy
63°F / 17°C 61°F / 16°C 94% 30.06 in
(1018 mb)
NE 6.9 mph
(NE 11 kph)
- 7SM
07:15
Partly Cloudy
63°F / 17°C 59°F / 15°C 88% 30.06 in
(1018 mb)
ENE 9.2 mph
(ENE 15 kph)
- 7SM
06:55
Mostly Cloudy
61°F / 16°C 59°F / 15°C 94% 30.09 in
(1019 mb)
NE 6.9 mph
(NE 11 kph)
- 7SM
06:35
Clear
61°F / 16°C 59°F / 15°C 94% 30.06 in
(1018 mb)
NE 6.9 mph
(NE 11 kph)
- 7SM
06:15
Clear
Fog And Mist
61°F / 16°C 59°F / 15°C 94% 30.06 in
(1018 mb)
NE 4.6 mph
(NE 7 kph)
- 5SM
05:55
Clear
Fog And Mist
61°F / 16°C 59°F / 15°C 94% 30.09 in
(1019 mb)
NE 3.5 mph
(NE 6 kph)
- 5SM
05:35
Partly Cloudy
Fog And Mist
59°F / 15°C 57°F / 14°C 94% 30.06 in
(1018 mb)
NE 3.5 mph
(NE 6 kph)
- 5SM
05:15
Overcast
59°F / 15°C 57°F / 14°C 94% 30.06 in
(1018 mb)
NNE 3.5 mph
(NNE 6 kph)
- 7SM
04:55
Partly Cloudy
59°F / 15°C 57°F / 14°C 94% 30.06 in
(1018 mb)
Calm - 7SM
04:35
Partly Cloudy
59°F / 15°C 57°F / 14°C 94% 30.06 in
(1018 mb)
NNE 4.6 mph
(NNE 7 kph)
- 7SM
04:15
Mostly Cloudy
Fog And Mist
59°F / 15°C 57°F / 14°C 94% 30.06 in
(1018 mb)
Calm - 3SM
03:55
Partly Cloudy
Fog And Mist
59°F / 15°C 57°F / 14°C 94% 30.06 in
(1018 mb)
SSE 3.5 mph
(SSE 6 kph)
- 4SM
03:54
Partly Cloudy
Fog And Mist
57°F / 14°C 57°F / 14°C 100% 30.06 in
(1018 mb)
SSE 3.5 mph
(SSE 6 kph)
- 4SM
03:35
Clear
59°F / 15°C 57°F / 14°C 94% 30.04 in
(1017 mb)
Calm - 7SM
03:10
Clear
59°F / 15°C 57°F / 14°C 94% 30.01 in
(1016 mb)
Calm - 7SM
03:00
Clear
Fog And Mist
59°F / 15°C 57°F / 14°C 94% 30.01 in
(1016 mb)
NE 3.5 mph
(NE 6 kph)
- 5SM
02:55
Clear
Fog And Mist
59°F / 15°C 59°F / 15°C 100% 30.01 in
(1016 mb)
NE 4.6 mph
(NE 7 kph)
0.01 in
(0.25 mm)
5SM
02:35
Mostly Cloudy
Fog And Mist
61°F / 16°C 59°F / 15°C 94% 30.01 in
(1016 mb)
NE 3.5 mph
(NE 6 kph)
0.01 in
(0.25 mm)
1 1/4SM
02:15
Overcast
Fog
61°F / 16°C 61°F / 16°C 100% 30.01 in
(1016 mb)
Calm - M1/4SM
01:55
Overcast
Fog
61°F / 16°C 61°F / 16°C 100% 30.01 in
(1016 mb)
NE 3.5 mph
(NE 6 kph)
- M1/4SM
01:35
Overcast
Fog
61°F / 16°C 61°F / 16°C 100% 30.01 in
(1016 mb)
ENE 4.6 mph
(ENE 7 kph)
- M1/4SM
01:15
Overcast
Fog
63°F / 17°C 61°F / 16°C 94% 30.01 in
(1016 mb)
ENE 4.6 mph
(ENE 7 kph)
- 1/4SM
00:55
Mostly Cloudy
Fog And Mist
61°F / 16°C 59°F / 15°C 94% 30.04 in
(1017 mb)
E 6.9 mph
(E 11 kph)
- 1 1/4SM
00:35
Obscured
Fog And Mist
61°F / 16°C 59°F / 15°C 94% 30.04 in
(1017 mb)
Calm - 1 1/4SM
00:15
Obscured
Fog And Mist
63°F / 17°C 61°F / 16°C 94% 30.04 in
(1017 mb)
Calm - 1 1/4SM
Time Weather Temperature Dewpoint Humidity Pressure Winds Precip Visibility


Weather for websites

WeatherForYou.com, LLC is not responsible for any damages or problems caused by this service. Current weather conditions are obtained from the closest station including government and personal stations which may have varying degrees of accuracy. Weather forecasts are derived from the NOAA NDFD. Like all things, this site belongs to Jesus Christ... He just trusts us to maintain it. If you have any questions or comments email webmaster@weatherforyou.com

Copyright © 2015, WeatherForYou.com LLC. All rights reserved.